COSMOS 886 DEB, 9652

Orbit data source: Space-Track

COSMOS 886 DEB, 9652 is space debris in LEO originally from a launch on Mon, 27 Dec 1976 UTC launched from the Tyuratam Missile And Space Complex (TTMTR). Debris objects in space refer to the collection of defunct objects orbiting the Earth. Examples of debris include non-operational satellites, rocket bodies, and fragments generated from explosions, collisions, or faulty payload assembly.

Loading next visibility...
Identifier
9652, 1976-126J
Orbit
LEO
Country
Flag of CISCIS
Related business
Manufacturer
Unknown
Mission
Spacecraft
Bus & Motor
Unknown
Mass
Unknown
Launch date (UTC)
1976-12-27 (49 years ago)
Launch vehicle
Unknown
Launch site
Tyuratam Missile And Space Complex (TTMTR)
Object type
Payload
Rocket body
Debris
Shape & HBR
Unknown shape, 0.4 m
Radar Cross Section
Medium (>0.1 m² and <1 m²)

Expand to show TLE details & history
Last TLE update: 16 hours ago

TLE from 16 hours ago
0 COSMOS 886 DEB
1  9652U 76126J   26129.89779167  .00000328  00000-0  20990-3 0  9994
2  9652  65.8275 196.0483 0892101 351.2613   7.3712 12.96604105303909
Epoch: 2026-05-09T21:32Z
TLE epoch observation values (Epoch: 2026-05-09T21:32:49.200Z)
Latitude
0.00005°
Longitude
5.13469°
Altitude
601.319 km
Speed
7.886 km/s
True Right ascension
13h 04m 11s
True Declination
0° 00' 00"
Sunlit
Object was in full shadow at epoch
Visualization orbit readout
Latitude
Unknown
Longitude
Unknown
Altitude
Unknown
Speed
Unknown
Apparent Right ascension
Unknown
Apparent Declination
Unknown
Sunlit
N/A
Visualization observer readout
Local Sidereal Time
21:18:49
Azimuth
Unknown
Elevation
Unknown
Doppler factor
Unknown
Orbital elements
Apogee altitude
1,956.629 km
Perigee altitude
591.336 km
Semi-major axis
7,652.119 km
Eccentricity
0.08921
Inclination
65.8275°
RAAN
196.0483°
Arg. of periapsis
351.2613°
True anomaly
8.84473°
Mean anomaly
7.3712°
Eccentric anomaly
8.09056°
Mean motion
3.24243 °/min
Orbital period
111.03 mins
BSTAR
0.0002099
Loading maneuver chart data...
Computing Atmospheric mass density...
Loading historical data...
Loading historical data...
Loading historical data...
Loading historical data...
Loading historical data...
Loading historical data...
Loading historical data...

Documentation

Showing up to 5 results
|